Weather History for Wichita Falls, TX

Change the Weather History Date:

Saturday, February 15, 2014

  Actual Average Record
Temperature  
Mean Temperature 51 °F 46 °F  
Max Temperature 71 °F 58 °F 85 °F (2000)
Min Temperature 30 °F 33 °F 18 °F (1936)
Degree Days  
Heating Degree Days 14 19  
Month to date heating degree days 472 309  
Since 1 July heating degree days 2569 2219  
Moisture  
Dew Point 27 °F    
Average Humidity 46    
Maximum Humidity 75    
Minimum Humidity 17    
Precipitation  
Precipitation 0.00 in 0.06 in 2.97 in (1938)
Month to date precipitation 0.35 0.81  
Year to date precipitation 0.35 1.95  
Snow  
Snow 0.00 in 0.00 in - ()
Month to date snowfall 4.3 0.4  
Since 1 July snowfall 5.0 3.1  
Snow Depth 0.00 in    
Sea Level Pressure  
Sea Level Pressure 30.02 in    
Wind  
Wind Speed 11 mph (SSE)    
Max Wind Speed 23 mph    
Max Gust Speed 30 mph    
Visibility 10 miles    
Events      
T = Trace of Precipitation, MM = Missing Value Source: NWS Daily Summary

Daily Weather History Graph

Daily Weather History Graph

Search for Another Location

Airport:

Trip Planner

Search our weather history database for the weather conditions in past years. The results will help you decide how hot, cold, wet, or windy it might be!

Date:

Astronomy

Feb. 15, 2014 Rise Set
Actual Time 7:18 AM CST 6:18 PM CST
Civil Twilight 6:53 AM CST 6:43 PM CST
Nautical Twilight 6:23 AM CST 7:12 PM CST
Astronomical Twilight 5:54 AM CST 7:42 PM CST
Moon 7:14 PM CST (2/15) 7:22 AM CST (2/15)
Length of Visible Light 11h 50m
Length of Day
10h 59m
Waxing Gibbous, 99% of the Moon is Illuminated
Feb 15
Waxing Gibbous
Feb 22
Last Quarter
Mar 1
New
Mar 8
First Quarter
Mar 16
Full

Hourly Weather History & Observations

Time (CST) Temp. Windchill Dew Point Humidity Pressure Visibility Wind Dir Wind Speed Gust Speed Precip Events Conditions
12:52 AM 41.0 °F 38.0 °F 25.0 °F 53% 30.10 in 10.0 mi North 4.6 mph - N/A   Clear
1:52 AM 39.9 °F - 25.0 °F 55% 30.09 in 10.0 mi Calm Calm - N/A   Clear
2:52 AM 37.9 °F - 24.1 °F 57% 30.08 in 10.0 mi Calm Calm - N/A   Clear
3:52 AM 35.1 °F 28.6 °F 24.1 °F 64% 30.08 in 10.0 mi South 8.1 mph - N/A   Clear
4:52 AM 34.0 °F 29.8 °F 24.1 °F 67% 30.08 in 10.0 mi SSE 4.6 mph - N/A   Clear
5:52 AM 32.0 °F 27.5 °F 24.1 °F 73% 30.08 in 10.0 mi SE 4.6 mph - N/A   Clear
6:52 AM 32.0 °F 23.6 °F 25.0 °F 75% 30.10 in 10.0 mi South 10.4 mph - N/A   Clear
7:52 AM 35.1 °F 27.9 °F 28.9 °F 78% 30.10 in 10.0 mi South 9.2 mph - N/A   Clear
8:52 AM 43.0 °F 36.4 °F 30.0 °F 60% 30.10 in 10.0 mi South 12.7 mph - N/A   Clear
9:52 AM 51.1 °F - 28.9 °F 43% 30.08 in 10.0 mi South 17.3 mph - N/A   Scattered Clouds
10:52 AM 55.9 °F - 28.0 °F 34% 30.07 in 10.0 mi South 15.0 mph 21.9 mph N/A   Scattered Clouds
11:52 AM 61.0 °F - 26.1 °F 26% 30.04 in 10.0 mi SSW 21.9 mph - N/A   Scattered Clouds
12:52 PM 63.0 °F - 24.1 °F 23% 30.00 in 10.0 mi SSW 18.4 mph - N/A   Partly Cloudy
1:52 PM 66.0 °F - 25.0 °F 21% 29.96 in 10.0 mi South 17.3 mph - N/A   Partly Cloudy
2:52 PM 69.1 °F - 25.0 °F 19% 29.93 in 10.0 mi South 19.6 mph 25.3 mph N/A   Clear
3:52 PM 71.1 °F - 25.0 °F 18% 29.91 in 10.0 mi South 20.7 mph 26.5 mph N/A   Clear
4:52 PM 70.0 °F - 25.0 °F 18% 29.91 in 10.0 mi South 11.5 mph - N/A   Scattered Clouds
5:52 PM 66.0 °F - 28.0 °F 24% 29.92 in 10.0 mi South 9.2 mph - N/A   Clear
6:52 PM 59.0 °F - 30.0 °F 33% 29.93 in 10.0 mi SSE 9.2 mph - N/A   Clear
7:52 PM 59.0 °F - 30.9 °F 35% 29.95 in 10.0 mi ESE 4.6 mph - N/A   Clear
8:52 PM 50.0 °F - 33.1 °F 52% 29.98 in 10.0 mi NE 9.2 mph - N/A   Clear
9:52 PM 51.1 °F - 32.0 °F 48% 30.01 in 10.0 mi ENE 9.2 mph - N/A   Clear
10:52 PM 48.0 °F - 32.0 °F 54% 30.01 in 10.0 mi ENE 9.2 mph - N/A   Clear
11:52 PM 46.9 °F - 32.0 °F 56% 30.02 in 10.0 mi ENE 6.9 mph - N/A   Clear